Pilot Mountain, NC

8:01 PM EST on February 07, 2016 (GMT -0500)
Mount Airy-Surry County

Weather History for KMWK - December, 2013

Change the Weather History Date:

Friday, December 6, 2013

  Actual Average (KINT) Record (KINT)
Temperature  
Mean Temperature 66 °F -  
Max Temperature 74 °F 51 °F 75 °F (1998)
Min Temperature 59 °F 34 °F 17 °F (1974)
Cooling Degree Days 2    
Growing Degree Days 16 (Base 50)    
Moisture  
Dew Point 63 °F    
Average Humidity 84    
Maximum Humidity 93    
Minimum Humidity 68    
Precipitation  
Precipitation 0.29 in - - ()
Sea Level Pressure  
Sea Level Pressure 29.97 in    
Wind  
Wind Speed 7 mph (SSW)    
Max Wind Speed 17 mph    
Max Gust Speed 25 mph    
Visibility 8 miles    
Events Rain    
Averages and records for this station are not official NWS values.
T = Trace of Precipitation, MM = Missing Value Source: NWS Daily Summary

Daily Weather History Graph

Daily Weather History Graph

Search for Another Location

Airport or City:

Trip Planner

Search our weather history database for the weather conditions in past years. The results will help you decide how hot, cold, wet, or windy it might be!

Date:

Astronomy

Dec. 06, 2013 Rise Set
Actual Time 7:20 AM EST 5:06 PM EST
Civil Twilight 6:51 AM EST 5:35 PM EST
Nautical Twilight 6:19 AM EST 6:07 PM EST
Astronomical Twilight 5:48 AM EST 6:38 PM EST
Moon 10:28 AM EST (12/6) 9:32 PM EST (12/6)
Length of Visible Light 10h 43m
Length of Day
9h 46m
Waxing Crescent, 19% of the Moon is Illuminated
Dec 6
Waxing Crescent
Dec 9
First Quarter
Dec 17
Full
Dec 25
Last Quarter
Jan 1
New

Hourly Weather History & Observations

Time (EST) Temp. Dew Point Humidity Pressure Visibility Wind Dir Wind Speed Gust Speed Precip Events Conditions
12:15 AM 64.0 °F 61.9 °F 93% 29.99 in 2.5 mi South 4.6 mph - 0.01 in Rain Light Rain
12:35 AM 64.8 °F 62.6 °F 93% 29.98 in 3.0 mi South 5.8 mph - 0.02 in   Light Drizzle
1:15 AM 65.5 °F 63.5 °F 93% 29.97 in 3.0 mi South 9.2 mph - 0.03 in   Heavy Drizzle
1:35 AM 66.2 °F 63.7 °F 92% 29.97 in 4.0 mi SSW 9.2 mph - 0.04 in Rain Rain
1:55 AM 66.2 °F 63.9 °F 92% 29.96 in 4.0 mi SSW 5.8 mph - 0.06 in   Drizzle
2:15 AM 66.2 °F 63.9 °F 92% 29.96 in 3.0 mi SSW 9.2 mph - N/A   Heavy Drizzle
2:35 AM 66.2 °F 63.7 °F 92% 29.97 in 3.0 mi SSW 4.6 mph - 0.04 in Rain Light Rain
2:55 AM 66.2 °F 63.5 °F 91% 29.96 in 4.0 mi SSW 8.1 mph 16.1 mph 0.05 in   Drizzle
3:15 AM 65.8 °F 63.5 °F 92% 29.97 in 5.0 mi SSW 6.9 mph 18.4 mph N/A   Light Drizzle
3:35 AM 65.8 °F 63.5 °F 92% 29.96 in 5.0 mi SSW 4.6 mph - 0.01 in   Overcast
3:55 AM 66.2 °F 63.5 °F 91% 29.97 in 7.0 mi SSW 4.6 mph - 0.01 in   Overcast
4:15 AM 66.2 °F 63.5 °F 91% 29.97 in 7.0 mi South 5.8 mph - N/A   Overcast
4:35 AM 66.2 °F 63.5 °F 91% 29.97 in 7.0 mi South 4.6 mph - N/A   Overcast
4:55 AM 66.2 °F 63.5 °F 91% 29.97 in 5.0 mi SSW 4.6 mph - N/A   Light Drizzle
5:15 AM 65.8 °F 63.1 °F 91% 29.96 in 7.0 mi Calm Calm - N/A   Overcast
5:35 AM 66.2 °F 63.5 °F 91% 29.96 in 7.0 mi SSW 3.5 mph - N/A   Overcast
5:55 AM 65.8 °F 63.1 °F 91% 29.97 in 7.0 mi South 3.5 mph - N/A   Light Drizzle
6:15 AM 65.8 °F 63.5 °F 92% 29.98 in 5.0 mi SSW 4.6 mph - N/A   Light Drizzle
6:35 AM 66.2 °F 63.5 °F 91% 29.97 in 7.0 mi SSE 4.6 mph - N/A   Overcast
6:55 AM 66.2 °F 63.5 °F 91% 29.97 in 7.0 mi Calm Calm - N/A Rain Rain
7:15 AM 66.2 °F 63.5 °F 91% 29.97 in 7.0 mi South 4.6 mph - N/A   Overcast
7:35 AM 66.6 °F 63.9 °F 91% 29.98 in 7.0 mi South 5.8 mph - N/A   Overcast
7:55 AM 66.6 °F 63.9 °F 91% 29.99 in 7.0 mi SSW 6.9 mph - N/A   Overcast
8:15 AM 66.4 °F 63.7 °F 91% 29.99 in 5.0 mi South 5.8 mph - N/A Rain Heavy Rain
8:35 AM 66.2 °F 63.7 °F 92% 29.99 in 5.0 mi South 3.5 mph - 0.01 in   Overcast
8:55 AM 66.2 °F 63.5 °F 91% 29.99 in 7.0 mi South 5.8 mph - 0.01 in   Overcast
9:15 AM 66.4 °F 63.7 °F 91% 29.99 in 7.0 mi South 6.9 mph - N/A   Overcast
9:35 AM 67.1 °F 63.9 °F 89% 30.00 in 10.0 mi SSW 8.1 mph - N/A   Overcast
9:55 AM 67.1 °F 63.7 °F 89% 30.00 in 10.0 mi SSW 5.8 mph - N/A   Overcast
10:15 AM 67.5 °F 63.7 °F 88% 30.01 in 10.0 mi South 5.8 mph - N/A   Overcast
10:35 AM 68.0 °F 63.9 °F 87% 30.01 in 10.0 mi SSW 8.1 mph - N/A   Overcast
10:55 AM 68.5 °F 64.0 °F 85% 30.01 in 10.0 mi SSW 10.4 mph 16.1 mph N/A   Overcast
11:15 AM 69.3 °F 64.6 °F 85% 30.01 in 10.0 mi SSW 10.4 mph - N/A   Overcast
11:35 AM 69.8 °F 64.8 °F 84% 30.00 in 10.0 mi SSW 9.2 mph - N/A   Overcast
11:55 AM 69.8 °F 64.6 °F 83% 29.99 in 10.0 mi SSW 5.8 mph - N/A   Overcast
12:15 PM 70.9 °F 65.3 °F 82% 29.99 in 10.0 mi South 6.9 mph - N/A   Overcast
12:35 PM 72.3 °F 66.0 °F 80% 29.98 in 10.0 mi South 9.2 mph 18.4 mph N/A   Mostly Cloudy
12:55 PM 73.2 °F 65.7 °F 77% 29.97 in 10.0 mi SSW 10.4 mph 16.1 mph N/A   Mostly Cloudy
1:15 PM 73.4 °F 65.1 °F 75% 29.96 in 10.0 mi SSW 9.2 mph 18.4 mph N/A   Mostly Cloudy
1:35 PM 73.0 °F 64.4 °F 74% 29.95 in 10.0 mi SSW 11.5 mph 20.7 mph N/A   Mostly Cloudy
1:55 PM 72.9 °F 64.4 °F 75% 29.95 in 10.0 mi SSW 12.7 mph 18.4 mph N/A   Overcast
2:15 PM 73.2 °F 64.0 °F 73% 29.95 in 10.0 mi SSW 17.3 mph 24.2 mph N/A   Overcast
2:35 PM 74.1 °F 63.5 °F 69% 29.95 in 10.0 mi SSW 16.1 mph 25.3 mph N/A   Mostly Cloudy
2:55 PM 73.0 °F 62.8 °F 70% 29.93 in 10.0 mi SSW 15.0 mph 24.2 mph N/A   Mostly Cloudy
3:15 PM 73.4 °F 63.0 °F 70% 29.94 in 10.0 mi SSW 12.7 mph 20.7 mph N/A   Overcast
3:35 PM 73.0 °F 62.8 °F 70% 29.93 in 10.0 mi SSW 12.7 mph 19.6 mph N/A   Overcast
3:55 PM 73.0 °F 62.4 °F 69% 29.94 in 10.0 mi SSW 11.5 mph 18.4 mph N/A   Overcast
4:15 PM 73.0 °F 62.1 °F 68% 29.95 in 10.0 mi SSW 9.2 mph 18.4 mph N/A   Overcast
4:35 PM 72.5 °F 61.5 °F 68% 29.95 in 10.0 mi SSW 10.4 mph 17.3 mph N/A   Mostly Cloudy
4:55 PM 72.5 °F 61.3 °F 68% 29.95 in 10.0 mi SSW 10.4 mph 17.3 mph N/A   Mostly Cloudy
5:35 PM 72.5 °F 61.7 °F 69% 29.96 in 10.0 mi SSW 6.9 mph 18.4 mph N/A   Mostly Cloudy
6:55 PM 70.9 °F 61.9 °F 73% 29.95 in 10.0 mi South 10.4 mph 19.6 mph N/A   Overcast
7:15 PM 71.1 °F 62.2 °F 74% 29.96 in 10.0 mi South 9.2 mph 16.1 mph N/A   Overcast
7:35 PM 70.9 °F 62.6 °F 75% 29.95 in 10.0 mi SSW 10.4 mph 16.1 mph N/A   Overcast
7:55 PM 70.7 °F 63.1 °F 77% 29.95 in 10.0 mi South 9.2 mph 20.7 mph N/A   Overcast
8:15 PM 70.7 °F 63.5 °F 78% 29.95 in 10.0 mi SSW 9.2 mph 19.6 mph N/A   Overcast
8:35 PM 70.2 °F 63.5 °F 79% 29.95 in 10.0 mi SSW 9.2 mph 18.4 mph N/A   Overcast
8:55 PM 70.0 °F 63.5 °F 80% 29.96 in 10.0 mi SSW 9.2 mph - N/A   Overcast
9:15 PM 70.2 °F 63.5 °F 79% 29.95 in 10.0 mi South 6.9 mph - N/A   Overcast
9:35 PM 70.2 °F 63.1 °F 78% 29.96 in 10.0 mi SSW 9.2 mph 16.1 mph N/A   Overcast
10:15 PM 70.3 °F 63.1 °F 78% 29.98 in 10.0 mi SW 6.9 mph - N/A   Overcast
10:35 PM 62.1 °F 58.5 °F 88% 30.01 in 2.5 mi Calm Calm - 0.03 in Rain Light Rain
10:55 PM 60.3 °F 57.4 °F 90% 30.02 in 4.0 mi Calm Calm - 0.08 in Rain Rain
11:15 PM 59.9 °F 57.2 °F 91% 30.03 in 5.0 mi NNW 3.5 mph - 0.06 in Rain Light Rain
11:35 PM 60.1 °F 57.4 °F 91% 30.04 in 10.0 mi Calm Calm - 0.06 in Rain Rain
11:55 PM 59.9 °F 57.4 °F 91% 30.03 in 10.0 mi Calm Calm - 0.08 in Rain Light Rain